Погода в Острове

Россия / Вологодская область     60°33′17″N   37°52′56″E
темп.,
°C
ветер,
м/с
пор.,
м/с
влажн.,
%
обл.,
%
осадки,
мм/ч
давл.,
гПа
погр.,
м
11 мая, вт
вт1100:00+8ююз3116964 0.0 1027266
03:00+6ююз298065 0.0 1028202
06:00+7ююз39745 0.0 1028235
09:00+13ююз47576 0.0 1028378
12:00+17ююз574798 0.0 1028812
15:00+19ююз46445 0.0 10281002
18:00+18ю36540 0.0 1027787
21:00+11ю39815 0.0 1028164
12 мая, ср
ср1200:00+9ююз268035 0.0 1029105
03:00+8ююз238490 0.0 102955
06:00+10ююз14772 0.0 1029104
09:00+16ю23532 0.0 1029446
12:00+20ю23390 0.0 1028987
15:00+22ююз23390 0.0 10261136
18:00+21ююз13510 0.0 1025933
21:00+14юв22780 0.0 102518
13 мая, чт
чт1300:00+12вюв228274 0.0 102537
03:00+12вюв268897 0.0 1024115
06:00+14вюв26856 0.0 1023167
09:00+19ююв476261 0.0 1023753
12:00+22ююв594742 0.0 10211782
15:00+23юв48465 0.0 10192080
18:00+21юв365540 0.1 10171294
21:00+14в259299 0.9 101788
14 мая, пт
пт1400:00+13юв2394100 0.3 101651
03:00+13ююв2798100 0.8 1015414
06:00+12ююз399647 0.1 1016446
09:00+14ююз368331 0.1 1016617
12:00+18ююз47538 0.0 10161620
15:00+18ююз4659100 0.0 10161142
18:00+18ю356498 0.1 1015946
21:00+13ююв2891100 0.2 1015188
15 мая, сб
сб1500:00+13ю2694100 0.2 1015176
03:00+12юв229750 0.2 101441
06:00+13вюв2591100 0.1 1014153
09:00+18юв2471100 0.1 1012529
12:00+21юв3560100 0.0 10111321
15:00+22ююв456199 0.4 10101247
18:00+20ю2480100 2.2 100891
21:00+17ююв51289100 7.7 1006593